Regional Weather Roundup
Issued by NWS

Home | Current Version | Previous Version | Graphics & Text | Print | Product List | Glossary On
Versions: 1 2 3 4 5 6 7 8 9 10 11 12 13 14 15 16 17 18 19 20 21 22 23 24 25 26 27 28 29 30 31 32 33 34 35 36 37 38 39 40 41 42 43 44 45 46 47
000
ASUS45 KCYS 261910
RWRWY

WYOMING REGIONAL WEATHER ROUNDUP
NATIONAL WEATHER SERVICE CHEYENNE WY
1200 PM MST FRI DEC 26 2014

NOTE:  "FAIR" INDICATES FEW OR NO CLOUDS BELOW 12,000 FEET
WITH NO SIGNIFICANT WEATHER AND/OR OBSTRUCTIONS TO VISIBILITY.

WYZ001-262000-
YELLOWSTONE NATIONAL PARK

CITY           SKY/WX    TMP DP  RH WIND       PRES   REMARKS
LK YELLOWSTONE   N/A     12   6  77 VRB3      29.91F
W YELLOWSTONE  NOT AVBL

$$
WYZ002>013-054>058-071-098>099-262000-
NORTHERN WYOMING

CITY           SKY/WX    TMP DP  RH WIND       PRES   REMARKS
JACKSON        NOT AVBL
CODY           FAIR      19  16  86 SW5       29.99S WCI  13
GREYBULL       CLOUDY    17  14  88 SE3       30.06F
WORLAND        LGT SNOW  17  14  88 SW3       30.04F FOG
SHERIDAN       FAIR      13   6  74 CALM      30.03F
BUFFALO        FAIR      19  12  74 CALM      29.99S
GILLETTE       CLOUDY    19  13  77 NW3       30.01F
HULETT           N/A    N/A N/A N/A MISG        N/A
NEWCASTLE      CLOUDY    19  14  79 CALM      30.03F

$$
WYZ014>020-022>026-101>103-262000-
CENTRAL WYOMING

CITY           SKY/WX    TMP DP  RH WIND       PRES   REMARKS
BIG PINEY      PTSUNNY   12   7  80 N3        29.89F
PINEDALE       FAIR      16   9  73 CALM      29.89F
DUBOIS         NOT AVBL
LANDER         LGT SNOW  16  13  88 CALM      29.96F FOG
RIVERTON       LGT SNOW  18  14  84 W3        29.98S FOG
CASPER         LGT SNOW  19  11  70 N3        29.97F
DOUGLAS        CLOUDY    17  12  80 W3        29.99F

$$
WYZ021-027>030-104>119-262000-
SOUTHERN WYOMING

CITY           SKY/WX    TMP DP  RH WIND       PRES   REMARKS
EVANSTON       LGT SNOW  17  12  80 NW7       29.88S VSB 3/4 WCI   8
KEMMERER       MOCLDY    18  10  73 CALM      29.88
FORT BRIDGER   CLOUDY    19  14  81 S8        29.91F WCI   9
ROCK SPRINGS   CLOUDY    17   8  67 NE14      29.88F WCI   3
DIXON          LGT SNOW  21  14  75 SW3       29.82F
RAWLINS        MIX PCPN  15   8  73 NE16G22   29.86F WCI  -1
SARATOGA       CLOUDY    16  12  86 NW6       29.82S FOG     WCI   7
LARAMIE        PTSUNNY    8   4  83 W3        29.81F
CHEYENNE       FLURRIES  15   7  70 N3        29.88F
TORRINGTON     LGT SNOW  20  15  81 N3        30.01F
PINE BLUFFS    LGT SNOW  18  12  79 N7        29.95F WCI   8

$$



USA.gov is the U.S. government's official web portal to all federal, state and local government web resources and services.